Year,Month,Day,Hour,Minute,Value (Times are PST for insolation in W/m^2)
2007,02,27,00,00,0.00
2007,02,27,00,01,0.00
2007,02,27,00,02,0.00
2007,02,27,00,03,0.00
2007,02,27,00,04,0.00
2007,02,27,00,05,0.00
2007,02,27,00,06,0.00
2007,02,27,00,07,0.00
2007,02,27,00,08,0.00
2007,02,27,00,09,0.00
2007,02,27,00,10,0.00
2007,02,27,00,11,0.00
2007,02,27,00,12,0.00
2007,02,27,00,13,0.00
2007,02,27,00,14,0.00
2007,02,27,00,15,0.00
2007,02,27,00,16,0.00
2007,02,27,00,17,0.00
2007,02,27,00,18,0.00
2007,02,27,00,19,0.00
2007,02,27,00,20,0.00
2007,02,27,00,21,0.00
2007,02,27,00,22,0.00
2007,02,27,00,23,0.00
2007,02,27,00,24,0.00
2007,02,27,00,25,0.00
2007,02,27,00,26,0.00
2007,02,27,00,27,0.00
2007,02,27,00,28,0.00
2007,02,27,00,29,0.00
2007,02,27,00,30,0.00
2007,02,27,00,31,0.00
2007,02,27,00,32,0.00
2007,02,27,00,33,0.00
2007,02,27,00,34,0.00
2007,02,27,00,35,0.00
2007,02,27,00,36,0.00
2007,02,27,00,37,0.00
2007,02,27,00,38,0.00
2007,02,27,00,39,0.00
2007,02,27,00,40,0.00
2007,02,27,00,41,0.00
2007,02,27,00,42,0.00
2007,02,27,00,43,0.00
2007,02,27,00,44,0.00
2007,02,27,00,45,0.00
2007,02,27,00,46,0.00
2007,02,27,00,47,0.00
2007,02,27,00,48,0.00
2007,02,27,00,49,0.00
2007,02,27,00,50,0.00
2007,02,27,00,51,0.00
2007,02,27,00,52,0.00
2007,02,27,00,53,0.00
2007,02,27,00,54,0.00
2007,02,27,00,55,0.00
2007,02,27,00,56,0.00
2007,02,27,00,57,0.00
2007,02,27,00,58,0.00
2007,02,27,00,59,0.00
2007,02,27,01,00,0.00
2007,02,27,01,01,0.00
2007,02,27,01,02,0.00
2007,02,27,01,03,0.00
2007,02,27,01,04,0.00
2007,02,27,01,05,0.00
2007,02,27,01,06,0.00
2007,02,27,01,07,0.00
2007,02,27,01,08,0.00
2007,02,27,01,09,0.00
2007,02,27,01,10,0.00
2007,02,27,01,11,0.00
2007,02,27,01,12,0.00
2007,02,27,01,13,0.00
2007,02,27,01,14,0.00
2007,02,27,01,15,0.00
2007,02,27,01,16,0.00
2007,02,27,01,17,0.00
2007,02,27,01,18,0.00
2007,02,27,01,19,0.00
2007,02,27,01,20,0.00
2007,02,27,01,21,0.00
2007,02,27,01,22,0.00
2007,02,27,01,23,0.00
2007,02,27,01,24,0.00
2007,02,27,01,25,0.00
2007,02,27,01,26,0.00
2007,02,27,01,27,0.00
2007,02,27,01,28,0.00
2007,02,27,01,29,0.00
2007,02,27,01,30,0.00
2007,02,27,01,31,0.00
2007,02,27,01,32,0.00
2007,02,27,01,33,0.00
2007,02,27,01,34,0.00
2007,02,27,01,35,0.00
2007,02,27,01,36,0.00
2007,02,27,01,37,0.00
2007,02,27,01,38,0.00
2007,02,27,01,39,0.00
2007,02,27,01,40,0.00
2007,02,27,01,41,0.00
2007,02,27,01,42,0.00
2007,02,27,01,43,0.00
2007,02,27,01,44,0.00
2007,02,27,01,45,0.00
2007,02,27,01,46,0.00
2007,02,27,01,47,0.00
2007,02,27,01,48,0.00
2007,02,27,01,49,0.00
2007,02,27,01,50,0.00
2007,02,27,01,51,0.00
2007,02,27,01,52,0.00
2007,02,27,01,53,0.00
2007,02,27,01,54,0.00
2007,02,27,01,55,0.00
2007,02,27,01,56,0.00
2007,02,27,01,57,0.00
2007,02,27,01,58,0.00
2007,02,27,01,59,0.00
2007,02,27,02,00,0.00
2007,02,27,02,01,0.00
2007,02,27,02,02,0.00
2007,02,27,02,03,0.00
2007,02,27,02,04,0.00
2007,02,27,02,05,0.00
2007,02,27,02,06,0.00
2007,02,27,02,07,0.00
2007,02,27,02,08,0.00
2007,02,27,02,09,0.00
2007,02,27,02,10,0.00
2007,02,27,02,11,0.00
2007,02,27,02,12,0.00
2007,02,27,02,13,0.00
2007,02,27,02,14,0.00
2007,02,27,02,15,0.00
2007,02,27,02,16,0.00
2007,02,27,02,17,0.00
2007,02,27,02,18,0.00
2007,02,27,02,19,0.00
2007,02,27,02,20,0.00
2007,02,27,02,21,0.00
2007,02,27,02,22,0.00
2007,02,27,02,23,0.00
2007,02,27,02,24,0.00
2007,02,27,02,25,0.00
2007,02,27,02,26,0.00
2007,02,27,02,27,0.00
2007,02,27,02,28,0.00
2007,02,27,02,29,0.00
2007,02,27,02,30,0.00
2007,02,27,02,31,0.00
2007,02,27,02,32,0.00
2007,02,27,02,33,0.00
2007,02,27,02,34,0.00
2007,02,27,02,35,0.00
2007,02,27,02,36,0.00
2007,02,27,02,37,0.00
2007,02,27,02,38,0.00
2007,02,27,02,39,0.00
2007,02,27,02,40,0.00
2007,02,27,02,41,0.00
2007,02,27,02,42,0.00
2007,02,27,02,43,0.00
2007,02,27,02,44,0.00
2007,02,27,02,45,0.00
2007,02,27,02,46,0.00
2007,02,27,02,47,0.00
2007,02,27,02,48,0.00
2007,02,27,02,49,0.00
2007,02,27,02,50,0.00
2007,02,27,02,51,0.00
2007,02,27,02,52,0.00
2007,02,27,02,53,0.00
2007,02,27,02,54,0.00
2007,02,27,02,55,0.00
2007,02,27,02,56,0.00
2007,02,27,02,57,0.00
2007,02,27,02,58,0.00
2007,02,27,02,59,0.00
2007,02,27,03,00,0.00
2007,02,27,03,01,0.00
2007,02,27,03,02,0.00
2007,02,27,03,03,0.00
2007,02,27,03,04,0.00
2007,02,27,03,05,0.00
2007,02,27,03,06,0.00
2007,02,27,03,07,0.00
2007,02,27,03,08,0.00
2007,02,27,03,09,0.00
2007,02,27,03,10,0.00
2007,02,27,03,11,0.00
2007,02,27,03,12,0.00
2007,02,27,03,13,0.00
2007,02,27,03,14,0.00
2007,02,27,03,15,0.00
2007,02,27,03,16,0.00
2007,02,27,03,17,0.00
2007,02,27,03,18,0.00
2007,02,27,03,19,0.00
2007,02,27,03,20,0.00
2007,02,27,03,21,0.00
2007,02,27,03,22,0.00
2007,02,27,03,23,0.00
2007,02,27,03,24,0.00
2007,02,27,03,25,0.00
2007,02,27,03,26,0.00
2007,02,27,03,27,0.00
2007,02,27,03,28,0.00
2007,02,27,03,29,0.00
2007,02,27,03,30,0.00
2007,02,27,03,31,0.00
2007,02,27,03,32,0.00
2007,02,27,03,33,0.00
2007,02,27,03,34,0.00
2007,02,27,03,35,0.00
2007,02,27,03,36,0.00
2007,02,27,03,37,0.00
2007,02,27,03,38,0.00
2007,02,27,03,39,0.00
2007,02,27,03,40,0.00
2007,02,27,03,41,0.00
2007,02,27,03,42,0.00
2007,02,27,03,43,0.00
2007,02,27,03,44,0.00
2007,02,27,03,45,0.00
2007,02,27,03,46,0.00
2007,02,27,03,47,0.00
2007,02,27,03,48,0.00
2007,02,27,03,49,0.00
2007,02,27,03,50,0.00
2007,02,27,03,51,0.00
2007,02,27,03,52,0.00
2007,02,27,03,53,0.00
2007,02,27,03,54,0.00
2007,02,27,03,55,0.00
2007,02,27,03,56,0.00
2007,02,27,03,57,0.00
2007,02,27,03,58,0.00
2007,02,27,03,59,0.00
2007,02,27,04,00,0.00
2007,02,27,04,01,0.00
2007,02,27,04,02,0.00
2007,02,27,04,03,0.00
2007,02,27,04,04,0.00
2007,02,27,04,05,0.00
2007,02,27,04,06,0.00
2007,02,27,04,07,0.00
2007,02,27,04,08,0.00
2007,02,27,04,09,0.00
2007,02,27,04,10,0.00
2007,02,27,04,11,0.00
2007,02,27,04,12,0.00
2007,02,27,04,13,0.00
2007,02,27,04,14,0.00
2007,02,27,04,15,0.00
2007,02,27,04,16,0.00
2007,02,27,04,17,0.00
2007,02,27,04,18,0.00
2007,02,27,04,19,0.00
2007,02,27,04,20,0.00
2007,02,27,04,21,0.00
2007,02,27,04,22,0.00
2007,02,27,04,23,0.00
2007,02,27,04,24,0.00
2007,02,27,04,25,0.00
2007,02,27,04,26,0.00
2007,02,27,04,27,0.00
2007,02,27,04,28,0.00
2007,02,27,04,29,0.00
2007,02,27,04,30,0.00
2007,02,27,04,31,0.00
2007,02,27,04,32,0.00
2007,02,27,04,33,0.00
2007,02,27,04,34,0.00
2007,02,27,04,35,0.00
2007,02,27,04,36,0.00
2007,02,27,04,37,0.00
2007,02,27,04,38,0.00
2007,02,27,04,39,0.00
2007,02,27,04,40,0.00
2007,02,27,04,41,0.00
2007,02,27,04,42,0.00
2007,02,27,04,43,0.00
2007,02,27,04,44,0.00
2007,02,27,04,45,0.00
2007,02,27,04,46,0.00
2007,02,27,04,47,0.00
2007,02,27,04,48,0.00
2007,02,27,04,49,0.00
2007,02,27,04,50,0.00
2007,02,27,04,51,0.00
2007,02,27,04,52,0.00
2007,02,27,04,53,0.00
2007,02,27,04,54,0.00
2007,02,27,04,55,0.00
2007,02,27,04,56,0.00
2007,02,27,04,57,0.00
2007,02,27,04,58,0.00
2007,02,27,04,59,0.00
2007,02,27,05,00,0.00
2007,02,27,05,01,0.00
2007,02,27,05,02,0.00
2007,02,27,05,03,0.00
2007,02,27,05,04,0.00
2007,02,27,05,05,0.00
2007,02,27,05,06,0.00
2007,02,27,05,07,0.00
2007,02,27,05,08,0.00
2007,02,27,05,09,0.00
2007,02,27,05,10,0.00
2007,02,27,05,11,0.00
2007,02,27,05,12,0.00
2007,02,27,05,13,0.00
2007,02,27,05,14,0.00
2007,02,27,05,15,0.00
2007,02,27,05,16,0.00
2007,02,27,05,17,0.00
2007,02,27,05,18,0.00
2007,02,27,05,19,0.00
2007,02,27,05,20,0.00
2007,02,27,05,21,0.00
2007,02,27,05,22,0.00
2007,02,27,05,23,0.00
2007,02,27,05,24,0.00
2007,02,27,05,25,0.00
2007,02,27,05,26,0.00
2007,02,27,05,27,0.00
2007,02,27,05,28,0.00
2007,02,27,05,29,0.00
2007,02,27,05,30,0.00
2007,02,27,05,31,0.00
2007,02,27,05,32,0.00
2007,02,27,05,33,0.00
2007,02,27,05,34,0.00
2007,02,27,05,35,0.00
2007,02,27,05,36,0.00
2007,02,27,05,37,0.00
2007,02,27,05,38,0.00
2007,02,27,05,39,0.00
2007,02,27,05,40,0.00
2007,02,27,05,41,0.00
2007,02,27,05,42,0.00
2007,02,27,05,43,0.00
2007,02,27,05,44,0.00
2007,02,27,05,45,0.00
2007,02,27,05,46,0.00
2007,02,27,05,47,0.00
2007,02,27,05,48,0.00
2007,02,27,05,49,0.00
2007,02,27,05,50,0.00
2007,02,27,05,51,0.00
2007,02,27,05,52,0.00
2007,02,27,05,53,0.00
2007,02,27,05,54,0.00
2007,02,27,05,55,0.00
2007,02,27,05,56,0.00
2007,02,27,05,57,0.00
2007,02,27,05,58,0.00
2007,02,27,05,59,0.00
2007,02,27,06,00,0.00
2007,02,27,06,01,0.00
2007,02,27,06,02,0.00
2007,02,27,06,03,0.00
2007,02,27,06,04,0.00
2007,02,27,06,05,0.00
2007,02,27,06,06,0.00
2007,02,27,06,07,0.00
2007,02,27,06,08,0.00
2007,02,27,06,09,0.00
2007,02,27,06,10,0.00
2007,02,27,06,11,0.00
2007,02,27,06,12,0.00
2007,02,27,06,13,0.00
2007,02,27,06,14,0.00
2007,02,27,06,15,0.00
2007,02,27,06,16,0.00
2007,02,27,06,17,0.00
2007,02,27,06,18,0.00
2007,02,27,06,19,0.00
2007,02,27,06,20,0.00
2007,02,27,06,21,0.00
2007,02,27,06,22,0.00
2007,02,27,06,23,0.00
2007,02,27,06,24,0.00
2007,02,27,06,25,0.00
2007,02,27,06,26,0.00
2007,02,27,06,27,0.00
2007,02,27,06,28,0.00
2007,02,27,06,29,0.00
2007,02,27,06,30,0.00
2007,02,27,06,31,0.00
2007,02,27,06,32,0.00
2007,02,27,06,33,0.00
2007,02,27,06,34,0.00
2007,02,27,06,35,0.00
2007,02,27,06,36,0.00
2007,02,27,06,37,0.00
2007,02,27,06,38,0.00
2007,02,27,06,39,0.00
2007,02,27,06,40,0.00
2007,02,27,06,41,0.00
2007,02,27,06,42,0.00
2007,02,27,06,43,0.00
2007,02,27,06,44,0.00
2007,02,27,06,45,0.00
2007,02,27,06,46,0.00
2007,02,27,06,47,0.00
2007,02,27,06,48,0.00
2007,02,27,06,49,0.00
2007,02,27,06,50,0.00
2007,02,27,06,51,0.00
2007,02,27,06,52,0.00
2007,02,27,06,53,0.00
2007,02,27,06,54,0.00
2007,02,27,06,55,0.00
2007,02,27,06,56,0.00
2007,02,27,06,57,0.00
2007,02,27,06,58,0.00
2007,02,27,06,59,0.00
2007,02,27,07,00,0.00
2007,02,27,07,01,0.00
2007,02,27,07,02,0.00
2007,02,27,07,03,0.00
2007,02,27,07,04,0.00
2007,02,27,07,05,0.00
2007,02,27,07,06,0.00
2007,02,27,07,07,0.00
2007,02,27,07,08,0.00
2007,02,27,07,09,0.00
2007,02,27,07,10,0.00
2007,02,27,07,11,0.50
2007,02,27,07,12,5.00
2007,02,27,07,13,5.00
2007,02,27,07,14,5.00
2007,02,27,07,15,5.00
2007,02,27,07,16,5.00
2007,02,27,07,17,5.00
2007,02,27,07,18,6.70
2007,02,27,07,19,7.00
2007,02,27,07,20,7.00
2007,02,27,07,21,7.00
2007,02,27,07,22,7.00
2007,02,27,07,23,7.00
2007,02,27,07,24,8.20
2007,02,27,07,25,9.00
2007,02,27,07,26,9.00
2007,02,27,07,27,9.00
2007,02,27,07,28,11.00
2007,02,27,07,29,11.00
2007,02,27,07,30,11.30
2007,02,27,07,31,12.00
2007,02,27,07,32,12.00
2007,02,27,07,33,12.00
2007,02,27,07,34,13.40
2007,02,27,07,35,15.70
2007,02,27,07,36,17.90
2007,02,27,07,37,18.10
2007,02,27,07,38,19.00
2007,02,27,07,39,19.70
2007,02,27,07,40,21.90
2007,02,27,07,41,23.00
2007,02,27,07,42,24.40
2007,02,27,07,43,25.00
2007,02,27,07,44,25.00
2007,02,27,07,45,25.00
2007,02,27,07,46,24.60
2007,02,27,07,47,23.00
2007,02,27,07,48,22.20
2007,02,27,07,49,21.00
2007,02,27,07,50,21.00
2007,02,27,07,51,21.00
2007,02,27,07,52,21.00
2007,02,27,07,53,21.00
2007,02,27,07,54,21.00
2007,02,27,07,55,21.00
2007,02,27,07,56,21.00
2007,02,27,07,57,21.90
2007,02,27,07,58,23.00
2007,02,27,07,59,23.00
2007,02,27,08,00,23.00
2007,02,27,08,01,23.00
2007,02,27,08,02,23.00
2007,02,27,08,03,23.00
2007,02,27,08,04,23.60
2007,02,27,08,05,25.00
2007,02,27,08,06,25.50
2007,02,27,08,07,26.00
2007,02,27,08,08,30.20
2007,02,27,08,09,32.80
2007,02,27,08,10,36.40
2007,02,27,08,11,40.40
2007,02,27,08,12,45.00
2007,02,27,08,13,50.20
2007,02,27,08,14,53.40
2007,02,27,08,15,56.10
2007,02,27,08,16,59.30
2007,02,27,08,17,60.00
2007,02,27,08,18,61.70
2007,02,27,08,19,62.10
2007,02,27,08,20,63.60
2007,02,27,08,21,67.80
2007,02,27,08,22,71.50
2007,02,27,08,23,75.40
2007,02,27,08,24,78.10
2007,02,27,08,25,80.40
2007,02,27,08,26,82.50
2007,02,27,08,27,83.00
2007,02,27,08,28,83.00
2007,02,27,08,29,83.20
2007,02,27,08,30,84.60
2007,02,27,08,31,86.80
2007,02,27,08,32,88.00
2007,02,27,08,33,86.80
2007,02,27,08,34,82.50
2007,02,27,08,35,75.10
2007,02,27,08,36,67.70
2007,02,27,08,37,57.30
2007,02,27,08,38,49.90
2007,02,27,08,39,44.80
2007,02,27,08,40,41.10
2007,02,27,08,41,40.00
2007,02,27,08,42,39.30
2007,02,27,08,43,37.40
2007,02,27,08,44,37.00
2007,02,27,08,45,37.30
2007,02,27,08,46,41.40
2007,02,27,08,47,45.70
2007,02,27,08,48,40.20
2007,02,27,08,49,37.90
2007,02,27,08,50,40.80
2007,02,27,08,51,42.00
2007,02,27,08,52,42.00
2007,02,27,08,53,39.30
2007,02,27,08,54,39.00
2007,02,27,08,55,39.20
2007,02,27,08,56,41.80
2007,02,27,08,57,47.20
2007,02,27,08,58,43.00
2007,02,27,08,59,37.00
2007,02,27,09,00,40.60
2007,02,27,09,01,48.00
2007,02,27,09,02,48.70
2007,02,27,09,03,43.70
2007,02,27,09,04,42.00
2007,02,27,09,05,42.70
2007,02,27,09,06,54.30
2007,02,27,09,07,64.10
2007,02,27,09,08,55.80
2007,02,27,09,09,51.50
2007,02,27,09,10,63.50
2007,02,27,09,11,85.10
2007,02,27,09,12,66.00
2007,02,27,09,13,49.80
2007,02,27,09,14,60.50
2007,02,27,09,15,118.50
2007,02,27,09,16,199.40
2007,02,27,09,17,227.00
2007,02,27,09,18,227.00
2007,02,27,09,19,83.90
2007,02,27,09,20,49.00
2007,02,27,09,21,51.60
2007,02,27,09,22,62.00
2007,02,27,09,23,62.00
2007,02,27,09,24,201.10
2007,02,27,09,25,315.70
2007,02,27,09,26,316.00
2007,02,27,09,27,321.10
2007,02,27,09,28,323.10
2007,02,27,09,29,325.30
2007,02,27,09,30,327.90
2007,02,27,09,31,330.80
2007,02,27,09,32,332.90
2007,02,27,09,33,335.10
2007,02,27,09,34,337.40
2007,02,27,09,35,338.80
2007,02,27,09,36,340.80
2007,02,27,09,37,343.30
2007,02,27,09,38,346.40
2007,02,27,09,39,348.60
2007,02,27,09,40,351.20
2007,02,27,09,41,354.00
2007,02,27,09,42,356.30
2007,02,27,09,43,358.50
2007,02,27,09,44,359.80
2007,02,27,09,45,363.90
2007,02,27,09,46,369.30
2007,02,27,09,47,371.40
2007,02,27,09,48,373.40
2007,02,27,09,49,374.90
2007,02,27,09,50,374.40
2007,02,27,09,51,373.70
2007,02,27,09,52,379.50
2007,02,27,09,53,381.00
2007,02,27,09,54,385.20
2007,02,27,09,55,387.00
2007,02,27,09,56,388.50
2007,02,27,09,57,393.60
2007,02,27,09,58,396.50
2007,02,27,09,59,397.00
2007,02,27,10,00,398.40
2007,02,27,10,01,402.40
2007,02,27,10,02,403.00
2007,02,27,10,03,395.00
2007,02,27,10,04,404.50
2007,02,27,10,05,406.00
2007,02,27,10,06,407.80
2007,02,27,10,07,410.00
2007,02,27,10,08,412.00
2007,02,27,10,09,414.60
2007,02,27,10,10,415.00
2007,02,27,10,11,416.90
2007,02,27,10,12,418.30
2007,02,27,10,13,420.00
2007,02,27,10,14,420.80
2007,02,27,10,15,423.00
2007,02,27,10,16,425.70
2007,02,27,10,17,428.40
2007,02,27,10,18,430.60
2007,02,27,10,19,431.90
2007,02,27,10,20,434.20
2007,02,27,10,21,436.40
2007,02,27,10,22,438.30
2007,02,27,10,23,439.80
2007,02,27,10,24,441.00
2007,02,27,10,25,441.00
2007,02,27,10,26,444.50
2007,02,27,10,27,447.70
2007,02,27,10,28,450.00
2007,02,27,10,29,452.20
2007,02,27,10,30,454.00
2007,02,27,10,31,454.40
2007,02,27,10,32,455.00
2007,02,27,10,33,455.00
2007,02,27,10,34,456.30
2007,02,27,10,35,460.20
2007,02,27,10,36,461.90
2007,02,27,10,37,466.00
2007,02,27,10,38,466.30
2007,02,27,10,39,467.40
2007,02,27,10,40,466.00
2007,02,27,10,41,467.00
2007,02,27,10,42,468.00
2007,02,27,10,43,468.70
2007,02,27,10,44,472.20
2007,02,27,10,45,475.80
2007,02,27,10,46,475.10
2007,02,27,10,47,476.40
2007,02,27,10,48,478.70
2007,02,27,10,49,480.90
2007,02,27,10,50,482.50
2007,02,27,10,51,484.20
2007,02,27,10,52,485.00
2007,02,27,10,53,486.70
2007,02,27,10,54,487.10
2007,02,27,10,55,489.10
2007,02,27,10,56,490.00
2007,02,27,10,57,490.00
2007,02,27,10,58,492.00
2007,02,27,10,59,494.00
2007,02,27,11,00,495.30
2007,02,27,11,01,498.40
2007,02,27,11,02,499.00
2007,02,27,11,03,501.20
2007,02,27,11,04,503.20
2007,02,27,11,05,504.00
2007,02,27,11,06,505.60
2007,02,27,11,07,509.00
2007,02,27,11,08,514.20
2007,02,27,11,09,522.20
2007,02,27,11,10,530.00
2007,02,27,11,11,531.10
2007,02,27,11,12,533.50
2007,02,27,11,13,536.00
2007,02,27,11,14,527.60
2007,02,27,11,15,529.20
2007,02,27,11,16,550.00
2007,02,27,11,17,552.60
2007,02,27,11,18,557.20
2007,02,27,11,19,559.00
2007,02,27,11,20,109.00
2007,02,27,11,21,109.00
2007,02,27,11,22,248.80
2007,02,27,11,23,574.20
2007,02,27,11,24,575.60
2007,02,27,11,25,582.20
2007,02,27,11,26,579.00
2007,02,27,11,27,571.00
2007,02,27,11,28,570.00
2007,02,27,11,29,563.00
2007,02,27,11,30,562.50
2007,02,27,11,31,558.50
2007,02,27,11,32,553.10
2007,02,27,11,33,552.00
2007,02,27,11,34,552.00
2007,02,27,11,35,548.80
2007,02,27,11,36,543.80
2007,02,27,11,37,545.00
2007,02,27,11,38,548.40
2007,02,27,11,39,553.30
2007,02,27,11,40,561.80
2007,02,27,11,41,563.00
2007,02,27,11,42,563.00
2007,02,27,11,43,558.80
2007,02,27,11,44,554.60
2007,02,27,11,45,529.70
2007,02,27,11,46,546.60
2007,02,27,11,47,544.10
2007,02,27,11,48,548.00
2007,02,27,11,49,548.00
2007,02,27,11,50,546.30
2007,02,27,11,51,546.30
2007,02,27,11,52,547.00
2007,02,27,11,53,549.50
2007,02,27,11,54,548.30
2007,02,27,11,55,550.00
2007,02,27,11,56,550.50
2007,02,27,11,57,552.90
2007,02,27,11,58,555.00
2007,02,27,11,59,554.50
2007,02,27,12,00,554.00
2007,02,27,12,01,554.00
2007,02,27,12,02,554.00
2007,02,27,12,03,554.10
2007,02,27,12,04,555.00
2007,02,27,12,05,555.00
2007,02,27,12,06,555.80
2007,02,27,12,07,557.00
2007,02,27,12,08,557.00
2007,02,27,12,09,557.00
2007,02,27,12,10,558.70
2007,02,27,12,11,557.20
2007,02,27,12,12,557.20
2007,02,27,12,13,559.00
2007,02,27,12,14,559.60
2007,02,27,12,15,561.00
2007,02,27,12,16,561.00
2007,02,27,12,17,562.30
2007,02,27,12,18,561.50
2007,02,27,12,19,561.00
2007,02,27,12,20,562.80
2007,02,27,12,21,561.00
2007,02,27,12,22,561.50
2007,02,27,12,23,563.40
2007,02,27,12,24,565.00
2007,02,27,12,25,566.00
2007,02,27,12,26,564.60
2007,02,27,12,27,564.00
2007,02,27,12,28,564.00
2007,02,27,12,29,565.80
2007,02,27,12,30,564.00
2007,02,27,12,31,564.00
2007,02,27,12,32,564.00
2007,02,27,12,33,564.00
2007,02,27,12,34,565.20
2007,02,27,12,35,566.00
2007,02,27,12,36,564.30
2007,02,27,12,37,563.10
2007,02,27,12,38,563.00
2007,02,27,12,39,563.00
2007,02,27,12,40,563.30
2007,02,27,12,41,564.00
2007,02,27,12,42,564.00
2007,02,27,12,43,563.30
2007,02,27,12,44,563.00
2007,02,27,12,45,563.00
2007,02,27,12,46,561.30
2007,02,27,12,47,563.00
2007,02,27,12,48,562.40
2007,02,27,12,49,561.00
2007,02,27,12,50,562.00
2007,02,27,12,51,563.60
2007,02,27,12,52,563.30
2007,02,27,12,53,563.00
2007,02,27,12,54,563.00
2007,02,27,12,55,563.00
2007,02,27,12,56,562.50
2007,02,27,12,57,561.00
2007,02,27,12,58,561.90
2007,02,27,12,59,561.90
2007,02,27,13,00,562.30
2007,02,27,13,01,563.00
2007,02,27,13,02,561.20
2007,02,27,13,03,562.90
2007,02,27,13,04,563.20
2007,02,27,13,05,563.70
2007,02,27,13,06,563.00
2007,02,27,13,07,562.10
2007,02,27,13,08,562.20
2007,02,27,13,09,561.60
2007,02,27,13,10,559.40
2007,02,27,13,11,557.20
2007,02,27,13,12,558.80
2007,02,27,13,13,557.00
2007,02,27,13,14,557.00
2007,02,27,13,15,557.00
2007,02,27,13,16,557.00
2007,02,27,13,17,555.00
2007,02,27,13,18,554.00
2007,02,27,13,19,554.80
2007,02,27,13,20,554.80
2007,02,27,13,21,551.70
2007,02,27,13,22,550.00
2007,02,27,13,23,550.00
2007,02,27,13,24,550.00
2007,02,27,13,25,550.00
2007,02,27,13,26,548.00
2007,02,27,13,27,547.00
2007,02,27,13,28,545.20
2007,02,27,13,29,546.80
2007,02,27,13,30,545.00
2007,02,27,13,31,545.60
2007,02,27,13,32,545.40
2007,02,27,13,33,543.00
2007,02,27,13,34,544.20
2007,02,27,13,35,543.60
2007,02,27,13,36,543.00
2007,02,27,13,37,544.80
2007,02,27,13,38,536.60
2007,02,27,13,39,481.80
2007,02,27,13,40,457.70
2007,02,27,13,41,467.10
2007,02,27,13,42,466.00
2007,02,27,13,43,399.60
2007,02,27,13,44,408.00
2007,02,27,13,45,422.00
2007,02,27,13,46,472.80
2007,02,27,13,47,521.40
2007,02,27,13,48,536.00
2007,02,27,13,49,535.20
2007,02,27,13,50,534.00
2007,02,27,13,51,533.40
2007,02,27,13,52,531.60
2007,02,27,13,53,531.00
2007,02,27,13,54,531.00
2007,02,27,13,55,526.80
2007,02,27,13,56,526.00
2007,02,27,13,57,525.40
2007,02,27,13,58,524.90
2007,02,27,13,59,526.00
2007,02,27,14,00,524.70
2007,02,27,14,01,524.00
2007,02,27,14,02,522.30
2007,02,27,14,03,519.20
2007,02,27,14,04,514.20
2007,02,27,14,05,510.40
2007,02,27,14,06,512.00
2007,02,27,14,07,511.10
2007,02,27,14,08,508.90
2007,02,27,14,09,505.40
2007,02,27,14,10,504.00
2007,02,27,14,11,503.10
2007,02,27,14,12,502.80
2007,02,27,14,13,500.20
2007,02,27,14,14,497.00
2007,02,27,14,15,496.60
2007,02,27,14,16,494.90
2007,02,27,14,17,494.00
2007,02,27,14,18,494.00
2007,02,27,14,19,492.40
2007,02,27,14,20,487.50
2007,02,27,14,21,488.70
2007,02,27,14,22,486.50
2007,02,27,14,23,485.00
2007,02,27,14,24,485.00
2007,02,27,14,25,483.80
2007,02,27,14,26,483.00
2007,02,27,14,27,483.00
2007,02,27,14,28,480.50
2007,02,27,14,29,476.20
2007,02,27,14,30,475.80
2007,02,27,14,31,474.50
2007,02,27,14,32,472.20
2007,02,27,14,33,469.90
2007,02,27,14,34,468.40
2007,02,27,14,35,468.00
2007,02,27,14,36,466.50
2007,02,27,14,37,464.20
2007,02,27,14,38,463.70
2007,02,27,14,39,461.00
2007,02,27,14,40,460.40
2007,02,27,14,41,459.00
2007,02,27,14,42,457.90
2007,02,27,14,43,457.00
2007,02,27,14,44,455.50
2007,02,27,14,45,454.20
2007,02,27,14,46,453.80
2007,02,27,14,47,449.70
2007,02,27,14,48,448.00
2007,02,27,14,49,447.30
2007,02,27,14,50,445.50
2007,02,27,14,51,443.80
2007,02,27,14,52,443.00
2007,02,27,14,53,441.50
2007,02,27,14,54,441.00
2007,02,27,14,55,439.00
2007,02,27,14,56,438.40
2007,02,27,14,57,435.40
2007,02,27,14,58,434.00
2007,02,27,14,59,433.00
2007,02,27,15,00,432.00
2007,02,27,15,01,431.30
2007,02,27,15,02,427.60
2007,02,27,15,03,422.50
2007,02,27,15,04,424.00
2007,02,27,15,05,337.20
2007,02,27,15,06,77.00
2007,02,27,15,07,77.00
2007,02,27,15,08,246.50
2007,02,27,15,09,400.30
2007,02,27,15,10,398.10
2007,02,27,15,11,396.10
2007,02,27,15,12,388.20
2007,02,27,15,13,392.00
2007,02,27,15,14,390.80
2007,02,27,15,15,387.00
2007,02,27,15,16,385.90
2007,02,27,15,17,380.00
2007,02,27,15,18,374.00
2007,02,27,15,19,357.00
2007,02,27,15,20,356.60
2007,02,27,15,21,355.50
2007,02,27,15,22,361.40
2007,02,27,15,23,368.90
2007,02,27,15,24,375.80
2007,02,27,15,25,350.00
2007,02,27,15,26,323.00
2007,02,27,15,27,143.00
2007,02,27,15,28,73.70
2007,02,27,15,29,87.30
2007,02,27,15,30,103.00
2007,02,27,15,31,77.90
2007,02,27,15,32,77.20
2007,02,27,15,33,109.50
2007,02,27,15,34,108.80
2007,02,27,15,35,151.70
2007,02,27,15,36,176.20
2007,02,27,15,37,257.30
2007,02,27,15,38,251.10
2007,02,27,15,39,63.00
2007,02,27,15,40,62.70
2007,02,27,15,41,66.00
2007,02,27,15,42,108.00
2007,02,27,15,43,201.30
2007,02,27,15,44,252.80
2007,02,27,15,45,257.00
2007,02,27,15,46,81.50
2007,02,27,15,47,62.00
2007,02,27,15,48,55.20
2007,02,27,15,49,51.60
2007,02,27,15,50,48.10
2007,02,27,15,51,47.00
2007,02,27,15,52,46.30
2007,02,27,15,53,46.00
2007,02,27,15,54,46.00
2007,02,27,15,55,46.00
2007,02,27,15,56,47.30
2007,02,27,15,57,49.00
2007,02,27,15,58,50.50
2007,02,27,15,59,53.50
2007,02,27,16,00,54.00
2007,02,27,16,01,54.00
2007,02,27,16,02,55.60
2007,02,27,16,03,56.00
2007,02,27,16,04,58.40
2007,02,27,16,05,61.00
2007,02,27,16,06,58.00
2007,02,27,16,07,58.00
2007,02,27,16,08,58.00
2007,02,27,16,09,59.30
2007,02,27,16,10,63.80
2007,02,27,16,11,57.40
2007,02,27,16,12,53.60
2007,02,27,16,13,62.20
2007,02,27,16,14,76.20
2007,02,27,16,15,118.40
2007,02,27,16,16,94.60
2007,02,27,16,17,67.90
2007,02,27,16,18,73.40
2007,02,27,16,19,68.50
2007,02,27,16,20,57.70
2007,02,27,16,21,56.00
2007,02,27,16,22,56.40
2007,02,27,16,23,58.60
2007,02,27,16,24,66.80
2007,02,27,16,25,99.00
2007,02,27,16,26,150.10
2007,02,27,16,27,213.40
2007,02,27,16,28,234.80
2007,02,27,16,29,232.20
2007,02,27,16,30,197.60
2007,02,27,16,31,185.00
2007,02,27,16,32,196.10
2007,02,27,16,33,216.10
2007,02,27,16,34,213.60
2007,02,27,16,35,214.10
2007,02,27,16,36,201.00
2007,02,27,16,37,189.40
2007,02,27,16,38,206.00
2007,02,27,16,39,202.80
2007,02,27,16,40,179.70
2007,02,27,16,41,151.00
2007,02,27,16,42,100.30
2007,02,27,16,43,42.80
2007,02,27,16,44,42.00
2007,02,27,16,45,42.00
2007,02,27,16,46,40.20
2007,02,27,16,47,39.90
2007,02,27,16,48,38.60
2007,02,27,16,49,37.00
2007,02,27,16,50,36.20
2007,02,27,16,51,35.00
2007,02,27,16,52,33.70
2007,02,27,16,53,33.00
2007,02,27,16,54,33.00
2007,02,27,16,55,32.10
2007,02,27,16,56,32.00
2007,02,27,16,57,32.00
2007,02,27,16,58,31.30
2007,02,27,16,59,30.00
2007,02,27,17,00,28.90
2007,02,27,17,01,28.00
2007,02,27,17,02,28.00
2007,02,27,17,03,26.20
2007,02,27,17,04,26.00
2007,02,27,17,05,26.00
2007,02,27,17,06,26.00
2007,02,27,17,07,26.00
2007,02,27,17,08,25.50
2007,02,27,17,09,25.00
2007,02,27,17,10,25.70
2007,02,27,17,11,26.00
2007,02,27,17,12,26.00
2007,02,27,17,13,26.00
2007,02,27,17,14,26.00
2007,02,27,17,15,26.00
2007,02,27,17,16,25.50
2007,02,27,17,17,25.00
2007,02,27,17,18,25.00
2007,02,27,17,19,23.50
2007,02,27,17,20,23.00
2007,02,27,17,21,21.10